When you browse on this site, cookies collect data to enhance your experience and personalize the content and advertising you see.
Visit our Privacy Policy to learn more. By continuing to use the site, you agree to this use of cookies and data.
  • In Hungary
  • List of Countries
  • For 7 days
  • Water Temperature
  • Satellite Maps
  • Weather Map
  • News
  • Weather Widgets
  • user-avatar
    Login

    Hourly Weather Nativitas

    Today, 19 February, Tuesday

    Time Temperature Precipitation Wind Pressure Humidity
    00:00 +15°C° 0 mm 1 mps 582 mmHg 30%
    01:00 +15°C° 0 mm 1 mps 581 mmHg 31%
    02:00 +14°C° 0 mm 1 mps 581 mmHg 31%
    03:00 +14°C° 0 mm 1 mps 580 mmHg 32%
    04:00 +13°C° 0 mm 1 mps 580 mmHg 33%
    05:00 +13°C° 0 mm 1 mps 580 mmHg 29%
    06:00 +14°C° 0 mm 2 mps 581 mmHg 30%
    07:00 +16°C° 0 mm 2 mps 582 mmHg 30%
    08:00 +17°C° 0 mm 2 mps 583 mmHg 30%
    09:00 +19°C° 0 mm 3 mps 583 mmHg 26%
    10:00 +21°C° 0 mm 4 mps 584 mmHg 22%
    11:00 +23°C° 0 mm 5 mps 585 mmHg 17%
    12:00 +24°C° 0 mm 6 mps 584 mmHg 16%
    13:00 +24°C° 0 mm 6 mps 584 mmHg 14%
    14:00 +24°C° 0 mm 6 mps 583 mmHg 13%
    15:00 +23°C° 0 mm 5 mps 583 mmHg 16%
    16:00 +22°C° 0 mm 5 mps 582 mmHg 18%
    17:00 +21°C° 0 mm 4 mps 581 mmHg 21%
    18:00 +19°C° 0 mm 3 mps 581 mmHg 25%
    19:00 +18°C° 0 mm 2 mps 581 mmHg 29%
    20:00 +16°C° 0 mm 1 mps 581 mmHg 33%
    21:00 +15°C° 0 mm 1 mps 580 mmHg 36%
    22:00 +15°C° 0 mm 1 mps 580 mmHg 38%
    23:00 +14°C° 0 mm 1 mps 580 mmHg 41%

    Tomorrow, 20 February, Wednesday

    Time Temperature Precipitation Wind Pressure Humidity
    00:00 +14°C° 0 mm 1 mps 580 mmHg 42%
    01:00 +13°C° 0 mm 1 mps 579 mmHg 43%
    02:00 +13°C° 0 mm 1 mps 579 mmHg 44%
    03:00 +12°C° 0 mm 1 mps 579 mmHg 44%
    04:00 +12°C° 0 mm 1 mps 578 mmHg 44%
    05:00 +12°C° 0 mm 1 mps 578 mmHg 44%
    06:00 +13°C° 0 mm 1 mps 579 mmHg 40%
    07:00 +15°C° 0 mm 1 mps 580 mmHg 36%
    08:00 +18°C° 0 mm 1 mps 582 mmHg 32%
    09:00 +18°C° 0 mm 2 mps 582 mmHg 29%
    10:00 +20°C° 0 mm 3 mps 583 mmHg 26%
    11:00 +22°C° 0 mm 3 mps 584 mmHg 22%
    12:00 +23°C° 0 mm 4 mps 583 mmHg 21%
    13:00 +25°C° 0 mm 5 mps 583 mmHg 19%
    14:00 +25°C° 0 mm 5 mps 582 mmHg 18%
    15:00 +23°C° 0 mm 5 mps 582 mmHg 20%
    16:00 +22°C° 0 mm 5 mps 581 mmHg 22%
    17:00 +21°C° 0 mm 5 mps 581 mmHg 24%
    18:00 +19°C° 0 mm 4 mps 580 mmHg 27%
    19:00 +17°C° 0 mm 3 mps 580 mmHg 31%
    20:00 +16°C° 0 mm 2 mps 580 mmHg 35%
    21:00 +15°C° 0 mm 2 mps 580 mmHg 37%
    22:00 +15°C° 0 mm 2 mps 580 mmHg 39%
    23:00 +14°C° 0 mm 2 mps 580 mmHg 41%

    Day after tomorrow, 21 February, Thursday

    Time Temperature Precipitation Wind Pressure Humidity
    00:00 +14°C° 0 mm 2 mps 580 mmHg 42%
    01:00 +13°C° 0 mm 2 mps 579 mmHg 44%
    02:00 +13°C° 0 mm 1 mps 579 mmHg 45%
    03:00 +12°C° 0 mm 1 mps 579 mmHg 46%
    04:00 +12°C° 0 mm 1 mps 579 mmHg 47%
    05:00 +11°C° 0 mm 1 mps 578 mmHg 48%
    06:00 +13°C° 0 mm 1 mps 580 mmHg 43%
    07:00 +15°C° 0 mm 1 mps 581 mmHg 38%
    08:00 +17°C° 0 mm 2 mps 582 mmHg 33%
    09:00 +19°C° 0 mm 2 mps 583 mmHg 29%
    10:00 +21°C° 0 mm 3 mps 583 mmHg 24%
    11:00 +23°C° 0 mm 4 mps 584 mmHg 20%
    12:00 +23°C° 0 mm 4 mps 583 mmHg 19%
    13:00 +25°C° 0 mm 4 mps 583 mmHg 17%
    14:00 +25°C° 0 mm 5 mps 582 mmHg 16%
    15:00 +23°C° 0 mm 5 mps 582 mmHg 18%
    16:00 +22°C° 0 mm 4 mps 582 mmHg 19%
    17:00 +21°C° 0 mm 4 mps 581 mmHg 21%
    18:00 +19°C° 0 mm 3 mps 581 mmHg 25%
    19:00 +18°C° 0 mm 2 mps 581 mmHg 29%
    20:00 +16°C° 0 mm 1 mps 581 mmHg 33%
    21:00 +15°C° 0 mm 1 mps 581 mmHg 34%
    22:00 +15°C° 0 mm 1 mps 581 mmHg 36%
    23:00 +13°C° 0 mm 0 mps 580 mmHg 38%

    22 February, Friday

    Time Temperature Precipitation Wind Pressure Humidity
    00:00 +14°C° 0 mm 1 mps 580 mmHg 39%
    01:00 +14°C° 0 mm 1 mps 580 mmHg 40%
    02:00 +13°C° 0 mm 1 mps 579 mmHg 42%
    03:00 +13°C° 0 mm 1 mps 579 mmHg 42%
    04:00 +12°C° 0 mm 1 mps 579 mmHg 42%
    05:00 +11°C° 0 mm 0 mps 579 mmHg 42%
    06:00 +13°C° 0 mm 0 mps 581 mmHg 38%
    07:00 +15°C° 0 mm 0 mps 582 mmHg 33%
    08:00 +17°C° 0 mm 0 mps 584 mmHg 28%
    09:00 +21°C° 0 mm 1 mps 584 mmHg 24%
    10:00 +23°C° 0 mm 2 mps 585 mmHg 20%
    11:00 +25°C° 0 mm 2 mps 585 mmHg 16%
    12:00 +25°C° 0 mm 3 mps 585 mmHg 16%
    13:00 +26°C° 0 mm 3 mps 584 mmHg 16%
    14:00 +26°C° 0 mm 4 mps 584 mmHg 16%
    15:00 +25°C° 0 mm 4 mps 583 mmHg 20%
    16:00 +23°C° 0 mm 4 mps 583 mmHg 23%
    17:00 +22°C° 0 mm 4 mps 582 mmHg 26%
    18:00 +20°C° 0 mm 3 mps 582 mmHg 31%
    19:00 +18°C° 0 mm 2 mps 582 mmHg 35%
    20:00 +18°C° 0 mm 1 mps 582 mmHg 39%
    21:00 +16°C° 0 mm 1 mps 582 mmHg 40%
    22:00 +16°C° 0 mm 1 mps 582 mmHg 42%
    23:00 +14°C° 0 mm 0 mps 582 mmHg 43%

    23 February, Saturday

    Time Temperature Precipitation Wind Pressure Humidity
    00:00 +14°C° 0 mm 0 mps 581 mmHg 45%
    01:00 +14°C° 0 mm 1 mps 581 mmHg 46%
    02:00 +14°C° 0 mm 1 mps 581 mmHg 47%
    03:00 +14°C° 0 mm 1 mps 581 mmHg 48%
    04:00 +12°C° 0 mm 0 mps 581 mmHg 50%
    05:00 +12°C° 0 mm 0 mps 581 mmHg 52%
    06:00 +13°C° 0 mm 0 mps 582 mmHg 49%
    07:00 +16°C° 0 mm 1 mps 583 mmHg 47%
    08:00 +18°C° 0 mm 1 mps 584 mmHg 45%
    09:00 +20°C° 0 mm 1 mps 585 mmHg 41%
    10:00 +22°C° 0 mm 1 mps 585 mmHg 38%
    11:00 +23°C° 0 mm 1 mps 586 mmHg 35%
    12:00 +24°C° 0 mm 2 mps 585 mmHg 34%
    13:00 +24°C° 0 mm 2 mps 585 mmHg 33%
    14:00 +24°C° 0 mm 2 mps 584 mmHg 31%
    15:00 +23°C° 0 mm 2 mps 584 mmHg 33%
    16:00 +23°C° 0 mm 2 mps 584 mmHg 35%
    17:00 +21°C° 0 mm 2 mps 584 mmHg 37%
    18:00 +21°C° 0 mm 1 mps 584 mmHg 40%
    19:00 +19°C° 0 mm 1 mps 584 mmHg 44%
    20:00 +16°C° 0 mm 0 mps 584 mmHg 47%
    21:00 +18°C° 0 mm 1 mps 584 mmHg 50%
    22:00 +16°C° 0 mm 1 mps 584 mmHg 53%
    23:00 +16°C° 0 mm 2 mps 583 mmHg 56%

    24 February, Sunday

    Time Temperature Precipitation Wind Pressure Humidity
    00:00 +15°C° 0 mm 1 mps 583 mmHg 58%
    01:00 +14°C° 0 mm 1 mps 582 mmHg 60%
    02:00 +14°C° 0 mm 1 mps 582 mmHg 62%
    03:00 +13°C° 0 mm 1 mps 582 mmHg 64%
    04:00 +13°C° 0 mm 1 mps 582 mmHg 65%
    05:00 +12°C° 0 mm 1 mps 582 mmHg 66%
    06:00 +14°C° 0 mm 1 mps 583 mmHg 60%
    07:00 +16°C° 0 mm 1 mps 584 mmHg 55%
    08:00 +18°C° 0 mm 1 mps 585 mmHg 50%
    09:00 +19°C° 0 mm 2 mps 585 mmHg 45%
    10:00 +20°C° 0 mm 2 mps 586 mmHg 41%
    11:00 +22°C° 0 mm 3 mps 586 mmHg 37%
    12:00 +24°C° 0 mm 3 mps 585 mmHg 36%
    13:00 +23°C° 0 mm 4 mps 585 mmHg 34%
    14:00 +25°C° 0 mm 4 mps 584 mmHg 33%
    15:00 +23°C° 0.1 mm 4 mps 584 mmHg 35%
    16:00 +22°C° 0.1 mm 4 mps 584 mmHg 37%
    17:00 +21°C° 0.1 mm 4 mps 583 mmHg 39%
    18:00 +20°C° 0.1 mm 3 mps 583 mmHg 43%
    19:00 +19°C° 0.1 mm 2 mps 584 mmHg 47%
    20:00 +19°C° 0.1 mm 1 mps 584 mmHg 51%
    21:00 +18°C° 0.1 mm 1 mps 583 mmHg 56%
    22:00 +16°C° 0.1 mm 1 mps 583 mmHg 62%
    23:00 +15°C° 0.1 mm 1 mps 583 mmHg 67%
    Show more